Location: Unspecified
(0.0000°N, 0.0000°E)
Time: 04:58:55
(UTC+00:00)

Vanguard 1 - Pass Details

Date: 11 December 2023
Orbit: 653 x 3826 km, 34.3° (Epoch: 22 February)

Event Time Altitude Azimuth Distance (km) Brightness Sun altitude
Rises 04:28:29 0° 260° (W) 6,717 - -19.4°
Exits shadow 04:31:40 - 253° (WSW) 6,042 13.7 -18.7°
Reaches altitude 10° 04:39:03 10° 228° (SW) 4,636 13.3 -17.0°
Maximum altitude 04:41:32 11° 216° (SW) 4,294 13.2 -16.4°
Drops below altitude 10° 04:43:46 10° 204° (SSW) 4,088 13.2 -15.9°
Sets 04:50:24 0° 167° (SSE) 4,265 13.9 -14.4°
